Regional Weather Roundup
Issued by NWS Huntsville, AL

Home | Current Version | Previous Version | Text Only | Print | Product List | Glossary On
Versions: 1 2 3 4 5 6 7 8 9 10 11 12 13 14 15 16 17 18 19 20 21 22 23 24 25 26 27 28 29 30 31 32 33 34 35 36 37 38 39 40 41 42 43 44 45 46 47 48 49 50
570
ASUS44 KHUN 261110
RWRHUN

WEATHER ROUNDUP FOR THE TENNESSEE VALLEY
NATIONAL WEATHER SERVICE HUNTSVILLE AL
600 AM CDT THU MAY 26 2016

ALZ001>004-261200-
NORTHWEST ALABAMA

CITY           SKY/WX    TMP DP  RH WIND       PRES   REMARKS
SHOALS AIRPORT CLEAR     64  60  87 E5        30.13R
SHOALS TVA RES   N/A     61 N/A N/A MISG        N/A
$$

ALZ005>007-016-261200-
NORTH CENTRAL ALABAMA

CITY           SKY/WX    TMP DP  RH WIND       PRES   REMARKS
DECATUR AP     CLEAR     61  60  97 CALM      30.14R
HUNTSVILLE AP  PTCLDY    65  60  84 E5        30.14R
HUN NWS/UAH      N/A     67  60  77 SE2         N/A
MERIDIANVILLE  CLEAR     63  55  77 CALM      30.15R
REDSTONE ARSN  CLEAR     65  60  85 S1        30.14R
VINEMONT AP    FAIR      64  59  83 S3        30.17S
$$

ALZ008>010-261200-
NORTHEAST ALABAMA

CITY           SKY/WX    TMP DP  RH WIND       PRES   REMARKS
ALBERTVILLE    CLOUDY    63  63 100 CALM      30.16R
FORT PAYNE     PTCLDY    59  55  88 CALM      30.18R
SCOTTSBORO AP  PTCLDY    63  63 100 CALM      30.17R
SCOTTSBORO HCN   N/A     63 N/A N/A MISG        N/A
$$

TNZ076-096-097-261200-
SOUTHEASTERN MIDDLE TENNESSEE

CITY           SKY/WX    TMP DP  RH WIND       PRES   REMARKS
TULLAHOMA      PTCLDY    63  63 100 CALM      30.17R
WINCHESTER     CLEAR     64  59  82 CALM      30.17R
$$

...SURROUNDING SITES...

CITY           SKY/WX    TMP DP  RH WIND       PRES   REMARKS
ATLANTA        CLOUDY    71  59  65 W5        30.19R
ANNISTON       CLEAR     63  60  90 CALM      30.18R
BIRMINGHAM     PTCLDY    66  61  84 CALM      30.17R
CHATTANOOGA    LGT RAIN  68  64  87 N5        30.19R
DALTON         DRIZZLE   63  63 100 CALM      30.18R
GADSDEN        PTCLDY    60  59  96 CALM      30.17R
GOLDEN TRNGL   CLOUDY    70  61  73 SE7       30.11R
HALEYVILLE     FAIR      64  60  87 S3        30.16R
JACKSON TN     CLOUDY    71  65  81 S12       30.06R
MEMPHIS        MOCLDY    74  68  81 S8        30.04R
NASHVILLE      MOCLDY    66  62  87 S5        30.11S
OXFORD MS      MOCLDY    72  66  83 S6        30.10R
ROME           MOCLDY    66  63  90 CALM      30.17R
SAVANNAH       CLOUDY    70  64  83 S6        30.08S
TUPELO         CLOUDY    71  62  73 S6        30.09S
TUSCALOOSA     CLEAR     62  62 100 CALM      30.13S
$$

...GULF COAST WEATHER...

CITY           SKY/WX    TMP DP  RH WIND       PRES   REMARKS
GULFPORT       CLOUDY    71  68  90 N3        30.11R
PASCAGOULA     CLOUDY    66  65  96 CALM      30.12R
MOBILE         CLOUDY    67  67 100 CALM      30.14R
GULF SHORES    CLOUDY    67  67 100 CALM      30.12R
PENSACOLA      MOCLDY    75  69  81 SE6       30.12
DESTIN         MOCLDY    77  72  84 SE3       30.12R
PANAMA CITY    MOCLDY    71  70  98 E3        30.14R FOG
APPALACHICOLA  PTCLDY    70  70 100 CALM      30.13R
$$





USA.gov is the U.S. government's official web portal to all federal, state and local government web resources and services.